period_start,C,m1,H,J0,J1,J2,J3,J4,J5,JA,JB,JC,JD,JJ,JK,JN,#
2016-09-18 00:01:23,0.00,0.48,0.00,22.71,28.57,31.60,14.65,47.00,1023.47,2030.95,3325.01,3000.00,3388.00,599.84,600.38,9.59,0000 0000 0000 0000 000000
2016-09-18 00:06:24,-0.00,0.48,0.00,22.66,28.56,31.63,14.64,47.04,1023.48,2030.96,3325.01,3000.00,3388.00,599.61,600.39,9.64,0000 0000 0000 0000 000000
2016-09-18 00:11:26,-0.00,0.48,0.00,22.66,28.55,31.67,14.75,47.06,1023.53,2030.97,3325.01,3000.01,3388.00,599.93,600.67,9.69,0000 0000 0000 0000 000000
2016-09-18 00:16:27,-0.00,0.48,0.00,22.63,28.55,31.70,14.70,47.10,1023.51,2030.98,3325.01,3000.02,3388.00,599.94,600.80,9.74,0000 0000 0000 0000 000000
2016-09-18 00:21:29,0.00,0.48,0.00,22.62,28.55,31.67,14.76,47.16,1023.54,2030.99,3325.00,3000.00,3388.00,600.11,600.82,9.79,0000 0000 0000 0000 000000
2016-09-18 00:26:30,0.00,0.48,0.00,22.58,28.55,31.70,14.77,47.20,1023.59,2030.98,3325.00,3000.00,3388.00,600.15,601.09,9.84,0000 0000 0000 0000 000000
2016-09-18 00:31:32,0.00,0.48,0.00,22.57,28.56,31.74,14.68,47.07,1023.69,2030.97,3325.01,3000.01,3388.00,599.90,600.95,9.89,0000 0000 0000 0000 000000
2016-09-18 00:36:33,-0.00,0.48,0.00,22.64,28.57,31.75,14.75,47.21,1023.59,2030.94,3325.00,3000.00,3387.99,600.05,600.96,9.94,0000 0000 0000 0000 000000
2016-09-18 00:41:34,-0.00,0.48,0.00,22.57,28.57,31.75,14.75,47.31,1023.55,2030.90,3324.99,3000.00,3387.99,600.14,601.11,9.99,0000 0000 0000 0000 000000
2016-09-18 00:46:35,-0.00,0.48,0.00,22.51,28.57,31.78,14.68,47.28,1023.57,2030.93,3324.99,3000.00,3387.98,600.02,601.16,10.04,0000 0000 0000 0000 000000
2016-09-18 00:51:36,-0.00,0.48,0.00,22.55,28.57,31.80,14.70,47.12,1023.74,2030.95,3324.99,3000.00,3387.99,600.01,601.14,10.09,0000 0000 0000 0000 000000
2016-09-18 00:56:38,0.00,0.48,0.00,22.56,28.57,31.80,14.69,46.90,1023.87,2030.95,3324.99,3000.00,3387.99,599.97,601.16,10.14,0000 0000 0000 0000 000000
2016-09-18 01:01:39,-0.00,0.48,0.00,22.56,28.58,31.80,14.76,47.02,1023.92,2030.93,3324.98,3000.00,3387.98,599.73,600.98,10.19,0000 0000 0000 0000 000000
2016-09-18 01:06:40,-0.00,0.48,0.00,22.53,28.60,31.83,14.69,46.91,1023.92,2030.90,3324.98,2999.99,3387.95,599.99,601.22,10.24,0000 0000 0000 0000 000000
2016-09-18 01:11:42,-0.01,0.48,0.00,22.52,28.60,31.84,14.71,46.94,1023.92,2030.78,3324.96,2999.99,3387.92,599.76,601.06,10.29,0000 0000 0000 0000 000000
2016-09-18 01:16:43,-0.00,0.48,0.00,22.53,28.60,31.83,14.71,46.87,1023.92,2030.81,3324.97,2999.99,3387.91,599.82,601.08,10.34,0000 0000 0000 0000 000000
2016-09-18 01:21:44,0.01,0.48,0.00,22.47,28.60,31.85,14.76,46.88,1023.94,2030.82,3324.95,2999.99,3387.87,600.02,601.55,10.39,0000 0000 0000 0000 000000
2016-09-18 01:26:46,-0.00,0.48,0.00,22.49,28.60,31.84,14.72,46.89,1023.94,2030.76,3324.92,2999.98,3387.76,599.62,600.96,10.45,0000 0000 0000 0000 000000
2016-09-18 01:31:47,-0.00,0.48,0.00,22.44,28.61,31.86,14.82,46.97,1023.94,2030.72,3324.83,2999.98,3387.66,600.51,601.93,10.50,0000 0000 0000 0000 000000
2016-09-18 01:36:48,-0.02,0.48,0.00,22.44,28.62,31.85,14.72,46.89,1023.94,2030.48,3324.52,2999.98,3387.29,600.00,601.38,10.55,0000 0000 0000 0000 000000
2016-09-18 01:41:50,0.02,0.48,0.00,22.41,28.62,31.86,14.74,46.91,1023.94,2030.64,3324.62,2999.98,3387.40,599.86,601.34,10.60,0000 0000 0000 0000 000000
2016-09-18 01:46:51,0.00,0.48,0.00,22.42,28.62,31.88,14.78,46.89,1023.94,2030.70,3324.54,2999.98,3387.35,600.00,601.51,10.65,0000 0000 0000 0000 000000
2016-09-18 01:51:52,0.01,0.48,0.00,22.43,28.62,31.89,14.78,46.83,1023.95,2030.50,3324.15,2999.95,3387.11,600.17,601.73,10.70,0000 0000 0000 0000 000000
2016-09-18 01:56:54,0.01,0.48,0.00,22.38,28.62,31.89,14.78,47.02,1023.95,2030.68,3324.22,2999.97,3387.19,600.04,601.64,10.75,0000 0000 0000 0000 000000
2016-09-18 02:01:55,-0.01,0.48,0.00,22.31,28.62,31.89,14.76,46.78,1023.94,2030.55,3324.15,2999.95,3387.09,600.22,601.78,10.80,0000 0000 0000 0000 000000
2016-09-18 02:06:56,0.01,0.48,0.00,22.36,28.62,31.86,14.78,46.95,1023.94,2030.55,3324.07,2999.89,3387.03,600.12,601.81,10.85,0000 0000 0000 0000 000000
2016-09-18 02:11:58,-0.02,0.48,0.00,22.35,28.62,31.86,14.78,46.91,1023.94,2030.36,3324.01,2999.73,3387.01,599.97,601.68,10.90,0000 0000 0000 0000 000000
2016-09-18 02:16:59,-0.00,0.48,0.00,22.35,28.62,31.85,14.75,46.98,1023.94,2030.18,3324.02,2999.62,3387.01,599.99,601.60,10.95,0000 0000 0000 0000 000000
2016-09-18 02:22:00,-0.01,0.48,0.00,22.35,28.62,31.88,14.76,46.83,1023.95,2030.24,3324.01,2999.77,3387.01,599.68,601.35,11.00,0000 0000 0000 0000 000000
2016-09-18 02:27:01,0.03,0.48,0.00,22.31,28.62,31.89,14.77,46.74,1023.95,2030.48,3324.01,2999.77,3387.01,600.07,601.81,11.05,0000 0000 0000 0000 000000
2016-09-18 02:32:02,0.00,0.48,0.00,22.34,28.62,31.89,14.76,46.88,1023.95,2030.41,3323.99,2999.36,3387.00,599.82,601.71,11.10,0000 0000 0000 0000 000000
2016-09-18 02:37:03,-0.01,0.48,0.00,22.33,28.62,31.88,14.76,46.96,1023.95,2030.23,3323.62,2999.02,3386.88,599.52,601.20,11.15,0000 0000 0000 0000 000000
2016-09-18 02:42:05,0.01,0.48,0.00,22.33,28.62,31.86,14.75,46.99,1023.95,2030.23,3323.27,2999.00,3386.76,600.08,601.80,11.20,0000 0000 0000 0000 000000
2016-09-18 02:47:06,0.01,0.48,0.00,22.30,28.62,31.85,14.79,46.98,1023.94,2030.39,3323.62,2999.00,3386.91,600.25,601.97,11.25,0000 0000 0000 0000 000000
2016-09-18 02:52:07,0.01,0.48,0.00,22.28,28.62,31.90,14.81,46.88,1023.94,2030.55,3323.51,2999.00,3386.91,599.87,601.70,11.30,0000 0000 0000 0000 000000
2016-09-18 02:57:08,-0.00,0.48,0.00,22.29,28.62,31.87,14.70,46.66,1023.96,2030.41,3323.29,2999.00,3386.78,600.17,601.93,11.35,0000 0000 0000 0000 000000
2016-09-18 03:02:09,-0.02,0.48,0.00,22.28,28.62,31.86,14.75,46.77,1023.98,2030.26,3323.20,2999.00,3386.70,600.04,601.88,11.40,0000 0000 0000 0000 000000
2016-09-18 03:07:10,0.01,0.48,0.00,22.25,28.62,31.88,14.76,47.06,1023.99,2030.27,3323.03,2998.99,3386.38,600.19,601.98,11.45,0000 0000 0000 0000 000000
2016-09-18 03:12:11,0.03,0.48,0.00,22.29,28.61,31.88,14.75,47.00,1024.00,2030.46,3323.00,2998.97,3386.04,599.78,601.58,11.50,0000 0000 0000 0000 000000
2016-09-18 03:17:13,-0.00,0.48,0.00,22.30,28.60,31.86,14.78,47.01,1023.98,2030.51,3322.99,2998.98,3386.03,600.37,602.17,11.55,0000 0000 0000 0000 000000
2016-09-18 03:22:14,0.01,0.48,0.00,22.28,28.60,31.85,14.79,47.18,1024.03,2030.64,3322.99,2998.98,3386.02,600.31,602.21,11.60,0000 0000 0000 0000 000000
2016-09-18 03:27:15,0.01,0.48,0.00,22.27,28.60,31.86,14.75,47.05,1024.04,2030.76,3322.99,2998.98,3386.05,600.03,601.90,11.65,0000 0000 0000 0000 000000
2016-09-18 03:32:16,-0.00,0.48,0.00,22.28,28.60,31.86,14.82,47.06,1024.02,2030.77,3322.99,2998.98,3386.04,600.36,602.21,11.70,0000 0000 0000 0000 000000
2016-09-18 03:37:18,-0.00,0.48,0.00,22.29,28.60,31.86,14.82,47.02,1024.06,2030.72,3322.99,2998.98,3386.02,600.11,601.99,11.75,0000 0000 0000 0000 000000
2016-09-18 03:42:19,0.00,0.48,0.00,22.29,28.60,31.85,14.80,46.98,1024.09,2030.78,3322.99,2998.98,3386.03,600.20,602.03,11.80,0000 0000 0000 0000 000000
2016-09-18 03:47:21,-0.02,0.48,0.00,22.29,28.60,31.87,14.72,46.97,1024.15,2030.72,3322.99,2998.98,3386.01,599.75,601.56,11.85,0000 0000 0000 0000 000000
2016-09-18 03:52:22,0.01,0.48,0.00,22.29,28.60,31.85,14.76,47.02,1024.20,2030.78,3322.97,2998.95,3386.00,599.91,601.84,11.90,0000 0000 0000 0000 000000
2016-09-18 03:57:23,0.00,0.48,0.00,22.35,28.60,31.87,14.78,46.81,1024.25,2030.79,3322.99,2998.96,3386.00,599.78,601.81,11.95,0000 0000 0000 0000 000000
2016-09-18 04:02:24,0.00,0.48,0.00,22.34,28.60,31.84,14.79,47.04,1024.24,2030.76,3322.87,2998.81,3386.00,599.79,601.68,12.00,0000 0000 0000 0000 000000
2016-09-18 04:07:26,0.04,0.48,0.00,22.29,28.60,31.84,14.78,46.99,1024.20,2030.75,3322.06,2998.07,3385.95,600.17,602.08,12.05,0000 0000 0000 0000 000000
2016-09-18 04:12:27,0.00,0.48,0.00,22.31,28.60,31.84,14.78,46.89,1024.08,2030.87,3322.00,2998.01,3385.83,600.38,602.29,12.10,0000 0000 0000 0000 000000
2016-09-18 04:17:28,0.07,0.48,0.00,22.27,28.60,31.83,14.80,47.06,1024.04,2030.85,3321.02,2997.42,3384.70,600.29,602.26,12.15,0000 0000 0000 0000 000000
2016-09-18 04:22:30,0.19,0.49,0.00,22.23,28.59,31.84,14.80,47.01,1023.98,2030.76,3317.68,2994.83,3381.92,599.69,601.75,12.20,0000 0000 0000 0000 000000
2016-09-18 04:27:32,0.11,0.50,0.00,22.18,28.59,31.86,14.71,47.07,1023.98,2030.90,3314.77,2992.76,3379.73,599.78,601.78,12.25,0000 0000 0000 0000 000000
2016-09-18 04:32:33,0.09,0.50,0.00,22.16,28.58,31.84,14.84,47.18,1023.98,2030.81,3312.70,2991.39,3378.24,600.10,602.10,12.30,0000 0000 0000 0000 000000
2016-09-18 04:37:34,0.09,0.51,0.00,22.19,28.57,31.84,14.85,46.98,1023.96,2030.91,3310.29,2989.92,3376.52,600.43,602.21,12.35,0000 0000 0000 0000 000000
2016-09-18 04:42:35,0.04,0.51,0.00,22.18,28.57,31.81,14.83,47.04,1023.96,2030.96,3309.53,2989.07,3376.00,599.87,601.87,12.40,0000 0000 0000 0000 000000
2016-09-18 04:47:36,0.00,0.52,0.00,22.21,28.57,31.84,14.83,46.89,1023.97,2030.93,3309.05,2989.00,3375.88,600.17,602.13,12.45,0000 0000 0000 0000 000000
2016-09-18 04:52:38,0.00,0.52,0.00,22.21,28.57,31.86,14.72,46.97,1023.97,2030.89,3309.00,2989.00,3375.51,599.91,601.87,12.50,0000 0000 0000 0000 000000
2016-09-18 04:57:39,0.01,0.52,0.00,22.17,28.57,31.83,14.81,46.93,1023.97,2030.90,3309.00,2988.98,3375.15,600.50,602.65,12.55,0000 0000 0000 0000 000000
2016-09-18 05:02:40,0.00,0.52,0.00,22.18,28.57,31.84,14.74,46.98,1023.99,2030.90,3308.98,2988.93,3375.01,599.92,601.91,12.60,0000 0000 0000 0000 000000
2016-09-18 05:07:42,0.02,0.52,0.00,22.21,28.57,31.85,14.91,47.14,1023.98,2030.95,3308.77,2988.63,3375.00,600.12,602.09,12.65,0000 0000 0000 0000 000000
2016-09-18 05:12:43,0.02,0.52,0.00,22.21,28.56,31.82,14.82,47.10,1023.98,2030.92,3308.05,2988.07,3374.99,600.18,602.23,12.70,0000 0000 0000 0000 000000
2016-09-18 05:17:44,0.12,0.52,0.00,22.21,28.55,31.82,14.83,46.98,1023.96,2030.94,3306.51,2987.04,3373.71,600.05,601.98,12.75,0000 0000 0000 0000 000000
2016-09-18 05:22:46,0.03,0.53,0.00,22.20,28.55,31.82,14.79,47.04,1023.96,2030.94,3304.77,2985.99,3372.08,599.89,601.88,12.81,0000 0000 0000 0000 000000
2016-09-18 05:27:47,0.03,0.53,0.00,22.21,28.55,31.81,14.70,46.98,1023.96,2030.95,3304.04,2985.41,3371.92,599.45,601.40,12.86,0000 0000 0000 0000 000000
2016-09-18 05:32:48,0.02,0.53,0.00,22.21,28.55,31.78,14.72,46.98,1023.97,2030.96,3303.93,2985.01,3371.21,599.58,601.56,12.91,0000 0000 0000 0000 000000
2016-09-18 05:37:50,0.01,0.53,0.00,22.19,28.55,31.80,14.77,47.17,1023.96,2030.97,3303.35,2985.00,3371.00,600.20,602.18,12.96,0000 0000 0000 0000 000000
2016-09-18 05:42:51,0.00,0.53,0.00,22.21,28.55,31.83,14.71,47.23,1023.96,2030.96,3303.04,2984.99,3371.00,599.60,601.53,13.01,0000 0000 0000 0000 000000
2016-09-18 05:47:52,0.00,0.53,0.00,22.15,28.55,31.81,14.73,47.15,1023.95,2030.98,3303.00,2984.98,3371.00,599.79,601.90,13.06,0000 0000 0000 0000 000000
2016-09-18 05:52:54,0.00,0.53,0.00,22.15,28.54,31.80,14.69,47.13,1023.95,2030.99,3303.00,2984.98,3371.00,599.57,601.85,13.11,0000 0000 0000 0000 000000
2016-09-18 05:57:55,0.00,0.53,0.00,22.18,28.54,31.80,14.75,47.07,1023.95,2030.98,3302.98,2984.94,3370.98,599.88,601.97,13.16,0000 0000 0000 0000 000000
2016-09-18 06:02:56,0.00,0.53,0.00,22.18,28.53,31.77,14.78,46.92,1023.94,2030.99,3302.98,2984.86,3370.98,600.14,601.94,13.21,0000 0000 0000 0000 000000
2016-09-18 06:07:57,0.01,0.53,0.00,22.19,28.52,31.77,14.72,46.95,1023.94,2030.99,3302.92,2984.70,3370.92,599.84,601.89,13.26,0000 0000 0000 0000 000000
2016-09-18 06:12:58,0.01,0.53,0.00,22.20,28.52,31.76,14.77,47.06,1023.94,2030.99,3302.67,2984.38,3370.75,600.10,602.07,13.31,0000 0000 0000 0000 000000
2016-09-18 06:18:00,0.02,0.53,0.00,22.18,28.52,31.78,14.80,46.98,1023.95,2030.99,3302.07,2984.07,3370.12,599.65,601.77,13.36,0000 0000 0000 0000 000000
2016-09-18 06:23:01,0.00,0.53,0.00,22.21,28.52,31.77,14.81,47.25,1023.94,2030.99,3302.00,2984.00,3370.00,599.71,601.73,13.41,0000 0000 0000 0000 000000
2016-09-18 06:28:02,0.00,0.53,0.00,22.19,28.52,31.77,14.77,47.08,1023.94,2030.99,3301.91,2983.99,3369.99,600.26,602.18,13.46,0000 0000 0000 0000 000000
2016-09-18 06:33:04,0.00,0.53,0.00,22.20,28.52,31.78,14.77,47.17,1023.94,2030.99,3301.60,2983.97,3369.96,599.98,602.06,13.51,0000 0000 0000 0000 000000
2016-09-18 06:38:05,0.01,0.53,0.00,22.24,28.52,31.76,14.70,46.96,1023.95,2030.99,3301.12,2983.93,3369.86,599.88,601.73,13.56,0000 0000 0000 0000 000000
2016-09-18 06:43:06,0.00,0.53,0.00,22.15,28.52,31.78,14.78,47.13,1023.94,2030.99,3301.04,2983.86,3369.74,599.88,601.97,13.61,0000 0000 0000 0000 000000
2016-09-18 06:48:08,0.01,0.53,0.00,22.18,28.52,31.76,14.72,47.00,1023.95,2030.99,3301.02,2983.80,3369.66,599.48,601.38,13.66,0000 0000 0000 0000 000000
2016-09-18 06:53:09,0.01,0.53,0.00,22.20,28.52,31.76,14.82,46.92,1023.94,2030.99,3301.00,2983.54,3369.33,600.08,602.09,13.71,0000 0000 0000 0000 000000
2016-09-18 06:58:10,0.01,0.54,0.00,22.19,28.50,31.75,14.86,47.08,1023.95,2030.99,3300.99,2983.13,3369.06,600.07,602.08,13.76,0000 0000 0000 0000 000000
2016-09-18 07:03:11,-0.00,0.54,0.00,22.13,28.50,31.76,14.82,47.12,1023.95,2030.99,3300.98,2983.21,3369.08,599.75,601.85,13.81,0000 0000 0000 0000 000000
2016-09-18 07:08:13,0.00,0.54,0.00,22.19,28.50,31.75,14.78,47.16,1023.96,2031.00,3300.98,2983.14,3369.05,600.02,601.99,13.86,0000 0000 0000 0000 000000
2016-09-18 07:13:14,0.01,0.54,0.00,22.12,28.50,31.76,14.79,47.03,1023.96,2031.00,3300.60,2983.03,3369.00,599.88,602.04,13.91,0000 0000 0000 0000 000000
2016-09-18 07:18:15,0.00,0.54,0.00,22.12,28.50,31.77,14.77,47.02,1023.96,2031.01,3300.31,2983.01,3369.00,600.15,602.28,13.96,0000 0000 0000 0000 000000
2016-09-18 07:23:16,0.00,0.54,0.00,22.09,28.50,31.76,14.74,47.05,1024.00,2031.00,3300.15,2983.01,3369.00,599.84,602.04,14.01,0000 0000 0000 0000 000000
2016-09-18 07:28:18,0.00,0.54,0.00,22.14,28.50,31.74,14.74,46.94,1024.10,2031.00,3300.01,2983.00,3369.00,600.12,602.16,14.06,0000 0000 0000 0000 000000
2016-09-18 07:33:19,0.00,0.54,0.00,22.20,28.50,31.76,14.83,47.10,1024.12,2031.00,3300.00,2983.00,3369.00,600.15,602.23,14.11,0000 0000 0000 0000 000000
2016-09-18 07:38:21,0.00,0.54,0.00,22.16,28.50,31.66,14.82,47.01,1024.13,2031.01,3299.99,2982.99,3368.93,600.12,602.25,14.16,0000 0000 0000 0000 000000
2016-09-18 07:43:22,-0.00,0.54,0.00,22.18,28.49,31.70,14.75,46.77,1024.21,2031.01,3299.96,2982.98,3368.88,600.11,602.22,14.21,0000 0000 0000 0000 000000
2016-09-18 07:48:23,0.01,0.54,0.00,22.21,28.48,31.72,14.71,46.77,1024.33,2031.04,3299.79,2982.97,3368.72,600.17,602.22,14.26,0000 0000 0000 0000 000000
2016-09-18 07:53:24,0.04,0.54,0.00,22.14,28.47,31.74,14.83,47.13,1024.39,2031.07,3299.12,2982.52,3368.16,600.31,602.63,14.31,0000 0000 0000 0000 000000
2016-09-18 07:58:26,0.01,0.54,0.00,22.09,28.47,31.74,14.74,46.97,1024.41,2031.09,3298.99,2982.04,3368.00,599.80,602.34,14.36,0000 0000 0000 0000 000000
2016-09-18 08:03:27,0.01,0.54,0.00,22.13,28.47,31.70,14.76,46.93,1024.42,2031.09,3298.69,2982.01,3368.00,599.67,602.12,14.41,0000 0000 0000 0000 000000
2016-09-18 08:08:28,0.02,0.54,0.00,22.12,28.47,31.72,14.79,46.88,1024.43,2031.19,3298.13,2982.00,3367.99,600.06,602.53,14.46,0000 0000 0000 0000 000000
2016-09-18 08:13:29,0.01,0.54,0.00,22.13,28.47,31.73,14.74,46.92,1024.43,2031.26,3298.01,2982.00,3367.95,599.76,602.15,14.51,0000 0000 0000 0000 000000
2016-09-18 08:18:31,0.01,0.54,0.00,22.12,28.46,31.71,14.82,46.93,1024.43,2031.36,3297.97,2981.97,3367.46,600.03,602.36,14.56,0000 0000 0000 0000 000000
2016-09-18 08:23:32,0.04,0.54,0.00,22.14,28.45,31.71,14.65,46.80,1024.43,2031.39,3297.31,2981.42,3367.02,599.61,602.15,14.61,0000 0000 0000 0000 000000
2016-09-18 08:28:33,0.01,0.55,0.00,22.14,28.45,31.69,14.83,46.89,1024.43,2031.37,3296.96,2981.01,3366.88,600.24,602.67,14.66,0000 0000 0000 0000 000000
2016-09-18 08:33:35,0.03,0.55,0.00,22.16,28.45,31.67,14.67,46.77,1024.45,2031.22,3296.14,2980.61,3366.07,599.61,602.03,14.71,0000 0000 0000 0000 000000
2016-09-18 08:38:36,0.06,0.55,0.00,22.14,28.45,31.72,14.85,46.94,1024.45,2031.33,3295.28,2980.00,3365.35,600.31,602.80,14.76,0000 0000 0000 0000 000000
2016-09-18 08:43:37,0.01,0.55,0.00,22.12,28.45,31.71,14.78,46.89,1024.45,2031.45,3294.95,2979.86,3365.00,599.91,602.33,14.81,0000 0000 0000 0000 000000
2016-09-18 08:48:38,0.03,0.55,0.00,22.03,28.45,31.69,14.79,46.80,1024.45,2031.48,3294.51,2979.36,3364.98,600.25,602.84,14.86,0000 0000 0000 0000 000000
2016-09-18 08:53:40,0.02,0.55,0.00,22.04,28.44,31.67,14.78,46.74,1024.45,2031.30,3293.45,2978.75,3364.11,600.10,602.67,14.91,0000 0000 0000 0000 000000
2016-09-18 08:58:41,0.11,0.56,0.00,22.11,28.43,31.65,14.74,46.87,1024.45,2031.27,3291.19,2977.32,3362.44,599.77,602.15,14.96,0000 0000 0000 0000 000000
2016-09-18 09:03:42,0.01,0.56,0.00,22.08,28.42,31.70,14.74,46.98,1024.46,2031.29,3290.08,2976.92,3361.98,600.11,602.62,15.01,0000 0000 0000 0000 000000
2016-09-18 09:08:44,0.05,0.56,0.00,22.05,28.42,31.66,14.78,47.08,1024.46,2031.31,3289.63,2976.36,3361.43,600.27,602.84,15.06,0000 0000 0000 0000 000000
2016-09-18 09:13:45,0.11,0.57,0.00,22.01,28.42,31.65,14.83,47.07,1024.59,2031.63,3287.84,2975.29,3360.25,600.52,603.24,15.12,0000 0000 0000 0000 000000
2016-09-18 09:18:46,0.10,0.57,0.00,22.03,28.42,31.59,14.78,46.82,1024.67,2031.91,3286.04,2974.07,3358.92,600.08,602.81,15.17,0000 0000 0000 0000 000000
2016-09-18 09:23:47,0.06,0.58,0.00,22.09,28.42,31.66,14.77,46.97,1024.78,2031.96,3284.32,2973.05,3357.65,599.93,602.60,15.22,0000 0000 0000 0000 000000
2016-09-18 09:28:49,0.04,0.58,0.00,22.09,28.40,31.66,14.79,46.80,1024.86,2031.97,3283.50,2972.37,3357.02,599.94,602.60,15.27,0000 0000 0000 0000 000000
2016-09-18 09:33:50,0.01,0.58,0.00,22.07,28.40,31.67,14.78,46.95,1024.91,2031.95,3283.02,2972.02,3356.99,600.26,603.11,15.32,0000 0000 0000 0000 000000
2016-09-18 09:38:52,0.01,0.58,0.00,22.07,28.40,31.66,14.74,46.80,1024.92,2031.98,3282.81,2972.00,3356.79,599.84,602.69,15.37,0000 0000 0000 0000 000000
2016-09-18 09:43:53,0.05,0.58,0.00,21.99,28.40,31.67,14.71,46.85,1024.92,2031.97,3281.67,2971.53,3355.87,599.45,602.43,15.42,0000 0000 0000 0000 000000
2016-09-18 09:48:54,0.13,0.59,0.00,21.99,28.40,31.61,14.79,46.96,1024.92,2031.98,3279.18,2969.79,3354.15,600.27,603.08,15.47,0000 0000 0000 0000 000000
2016-09-18 09:53:55,0.05,0.59,0.00,22.08,28.38,31.66,14.74,46.97,1024.92,2031.98,3277.24,2968.80,3353.02,599.95,602.70,15.52,0000 0000 0000 0000 000000
2016-09-18 09:58:57,0.01,0.59,0.00,22.03,28.37,31.64,14.78,47.03,1024.92,2031.99,3276.99,2968.15,3352.76,599.91,602.79,15.57,0000 0000 0000 0000 000000
2016-09-18 10:03:57,0.02,0.59,0.00,22.06,28.37,31.60,14.75,47.02,1024.92,2031.99,3276.53,2968.01,3352.14,600.10,602.84,15.62,0000 0000 0000 0000 000000
2016-09-18 10:08:59,-0.00,0.60,0.00,22.06,28.37,31.64,14.73,46.91,1024.92,2031.99,3276.01,2968.00,3352.00,599.54,602.28,15.67,0000 0000 0000 0000 000000
2016-09-18 10:14:00,-0.00,0.60,0.00,22.04,28.37,31.58,14.84,47.02,1024.92,2031.98,3275.96,2967.99,3352.00,600.31,602.92,15.72,0000 0000 0000 0000 000000
2016-09-18 10:19:01,0.01,0.60,0.00,22.01,28.37,31.59,14.83,47.20,1024.92,2031.98,3275.29,2967.85,3351.93,600.26,603.19,15.77,0000 0000 0000 0000 000000
2016-09-18 10:24:02,0.02,0.60,0.00,21.97,28.35,31.55,14.77,46.88,1024.92,2031.99,3275.02,2967.38,3351.51,599.87,602.80,15.82,0000 0000 0000 0000 000000
2016-09-18 10:29:03,-0.00,0.60,0.00,21.96,28.35,31.59,14.76,46.92,1024.92,2031.99,3275.00,2967.09,3351.18,599.58,602.69,15.87,0000 0000 0000 0000 000000
2016-09-18 10:34:05,0.00,0.60,0.00,22.00,28.35,31.61,14.78,46.97,1024.93,2031.99,3274.99,2967.09,3351.09,600.00,602.77,15.92,0000 0000 0000 0000 000000
2016-09-18 10:39:06,0.00,0.60,0.00,22.01,28.35,31.59,14.87,46.91,1024.93,2031.99,3274.67,2967.01,3351.01,600.04,602.96,15.97,0000 0000 0000 0000 000000
2016-09-18 10:44:07,0.00,0.60,0.00,21.98,28.35,31.60,14.83,47.03,1024.92,2031.99,3274.07,2967.00,3351.00,600.16,603.21,16.02,0000 0000 0000 0000 000000
2016-09-18 10:49:09,0.00,0.60,0.00,21.95,28.35,31.61,14.77,46.88,1024.92,2031.99,3274.01,2967.00,3350.99,599.77,602.90,16.07,0000 0000 0000 0000 000000
2016-09-18 10:54:10,0.00,0.60,0.00,21.95,28.34,31.53,14.77,46.98,1024.93,2031.99,3274.01,2967.00,3350.99,599.84,602.91,16.12,0000 0000 0000 0000 000000
2016-09-18 10:59:12,0.00,0.60,0.00,21.91,28.33,31.56,14.83,47.16,1024.93,2031.99,3274.00,2967.00,3350.99,600.10,603.25,16.17,0000 0000 0000 0000 000000
2016-09-18 11:04:13,0.00,0.60,0.00,21.94,28.32,31.53,14.78,46.83,1024.92,2031.99,3273.99,2967.00,3350.98,600.13,603.20,16.22,0000 0000 0000 0000 000000
2016-09-18 11:09:14,0.00,0.60,0.00,21.92,28.32,31.58,14.82,46.88,1024.92,2031.99,3273.97,2966.97,3350.88,600.09,603.26,16.27,0000 0000 0000 0000 000000
2016-09-18 11:14:15,0.00,0.60,0.00,21.91,28.32,31.56,14.85,46.92,1024.92,2031.99,3273.98,2966.97,3350.86,599.99,603.09,16.32,0000 0000 0000 0000 000000
2016-09-18 11:19:17,0.00,0.60,0.00,21.89,28.32,31.51,14.79,47.02,1024.92,2031.99,3273.96,2966.98,3350.76,600.01,603.11,16.37,0000 0000 0000 0000 000000
2016-09-18 11:24:18,0.00,0.60,0.00,21.89,28.31,31.52,14.82,46.92,1024.92,2031.99,3273.94,2966.98,3350.80,599.96,603.05,16.42,0000 0000 0000 0000 000000
2016-09-18 11:29:19,0.02,0.60,0.00,21.87,28.30,31.51,14.89,47.13,1024.93,2031.99,3273.47,2966.94,3350.35,600.29,603.47,16.47,0000 0000 0000 0000 000000
2016-09-18 11:34:20,0.03,0.60,0.00,21.93,28.30,31.52,14.73,47.20,1024.92,2031.99,3273.00,2966.28,3350.01,599.96,602.97,16.52,0000 0000 0000 0000 000000
2016-09-18 11:39:22,0.01,0.60,0.00,21.93,28.30,31.54,14.76,47.12,1024.93,2031.99,3272.63,2966.01,3350.00,599.95,603.05,16.57,0000 0000 0000 0000 000000
2016-09-18 11:44:23,0.00,0.60,0.00,21.87,28.30,31.55,14.88,47.11,1024.93,2031.99,3272.09,2966.00,3349.98,600.17,603.34,16.62,0000 0000 0000 0000 000000
2016-09-18 11:49:24,0.00,0.60,0.00,21.82,28.28,31.51,14.77,47.03,1024.92,2031.99,3272.02,2966.00,3349.97,599.97,603.45,16.67,0000 0000 0000 0000 000000
2016-09-18 11:54:26,0.00,0.60,0.00,21.79,28.27,31.54,14.81,47.07,1024.93,2031.99,3272.00,2965.99,3349.88,599.77,603.23,16.72,0000 0000 0000 0000 000000
2016-09-18 11:59:27,0.00,0.60,0.00,21.88,28.27,31.48,14.78,46.98,1024.93,2031.99,3272.00,2965.99,3349.85,600.02,603.21,16.77,0000 0000 0000 0000 000000
2016-09-18 12:04:28,0.00,0.60,0.00,21.85,28.27,31.52,14.72,46.92,1024.94,2031.99,3271.99,2965.99,3349.88,600.04,603.31,16.82,0000 0000 0000 0000 000000
2016-09-18 12:09:29,0.00,0.60,0.00,21.84,28.25,31.49,14.79,47.00,1024.94,2031.99,3271.98,2966.00,3349.78,599.89,603.15,16.87,0000 0000 0000 0000 000000
2016-09-18 12:14:31,0.00,0.60,0.00,21.79,28.25,31.44,14.86,46.93,1024.94,2031.99,3271.99,2966.00,3349.55,600.01,603.51,16.92,0000 0000 0000 0000 000000
2016-09-18 12:19:32,0.00,0.60,0.00,21.81,28.25,31.46,14.84,47.06,1024.94,2032.00,3271.98,2966.00,3349.71,599.98,603.34,16.97,0000 0000 0000 0000 000000
2016-09-18 12:24:33,0.00,0.60,0.00,21.86,28.24,31.44,14.84,47.33,1024.95,2032.00,3271.97,2966.00,3349.61,600.28,603.35,17.02,0000 0000 0000 0000 000000
2016-09-18 12:29:35,0.00,0.60,0.00,21.83,28.22,31.44,14.79,47.39,1024.95,2032.02,3271.93,2966.00,3349.39,599.94,603.28,17.07,0000 0000 0000 0000 000000
2016-09-18 12:34:36,0.00,0.60,0.00,21.79,28.22,31.47,14.83,47.09,1024.96,2032.01,3271.84,2966.00,3349.28,600.08,603.45,17.12,0000 0000 0000 0000 000000
2016-09-18 12:39:37,0.01,0.60,0.00,21.81,28.22,31.42,14.85,47.18,1025.00,2032.02,3271.62,2966.00,3349.19,600.27,603.61,17.17,0000 0000 0000 0000 000000
2016-09-18 12:44:39,0.01,0.60,0.00,21.79,28.20,31.46,14.88,47.26,1025.03,2032.01,3271.40,2966.00,3349.15,599.79,603.29,17.22,0000 0000 0000 0000 000000
2016-09-18 12:49:40,0.01,0.60,0.00,21.79,28.20,31.46,14.81,47.10,1025.14,2032.03,3271.17,2966.00,3349.06,600.11,603.66,17.27,0000 0000 0000 0000 000000
2016-09-18 12:54:41,0.00,0.60,0.00,21.76,28.20,31.42,14.76,47.16,1025.26,2032.03,3271.02,2965.90,3349.02,599.83,603.47,17.32,0000 0000 0000 0000 000000